Location: Broekland
(52.3610°N, 6.2005°E)
Time: 07:06:06
(UTC+00:00)

NOSS 7 (H) - Pass Details

Date: 19 May 2025
Orbit: 362 x 1535 km, 63.3° (Epoch: 14 June)

Event Time Altitude Azimuth Distance (km) Brightness Sun altitude
Rises 20:52:01 0° 311° (NW) 2,213 9.9 -9.8°
Reaches altitude 10° 20:53:58 10° 306° (NW) 1,361 8.2 -10.0°
Maximum altitude 20:56:48 52° 228° (SW) 483 4.5 -10.2°
Enters shadow 20:59:07 16° 155° (SSE) 1,163 5.9 -10.4°
